Time_in_sec,Latitude,Longitude,Altitude,Nbsat_max_qualitysignal,Nbsat_locked,valid_data
1314271484.20046329,-0.00006995,0.00005370,-8360.16699219,0,1,0
1314271595.04848409,-0.00006718,0.00005151,-10123.38671875,1,2,0
1314271595.09713793,-0.00006712,0.00005151,-10124.21289062,1,2,0
1314271595.14845538,-0.00006717,0.00005151,-10125.03906250,1,2,0
1314271595.19729686,-0.00006712,0.00005151,-10125.86621094,1,2,0
1314271595.24946189,-0.00006717,0.00005151,-10126.69140625,1,2,0
1314271595.29803658,-0.00006712,0.00005151,-10127.51855469,1,2,0
1314271595.34857488,-0.00006717,0.00005150,-10128.34472656,1,2,0
1314271595.40169263,-0.00006712,0.00005151,-10129.17089844,1,2,0
1314271595.44950294,-0.00006717,0.00005150,-10129.99707031,1,2,0
1314271595.50151420,-0.00006712,0.00005151,-10130.82421875,1,2,0
1314271595.54994678,-0.00006717,0.00005150,-10131.65039062,1,2,0
1314271595.60048556,-0.00006712,0.00005150,-10132.47656250,1,2,0
1314271595.64947176,-0.00006717,0.00005150,-10133.30273438,1,2,0
1314271595.70191383,-0.00006712,0.00005150,-10134.12988281,1,2,0
1314271595.74993587,-0.00006717,0.00005150,-10134.95605469,1,2,0
1314271595.80057621,-0.00006712,0.00005150,-10135.78320312,1,2,0
1314271595.84850526,-0.00006717,0.00005150,-10136.60937500,1,2,0
1314271595.90150642,-0.00006712,0.00005150,-10137.43554688,1,2,0
1314271595.94980478,-0.00006717,0.00005149,-10138.26269531,0,2,0
1314271596.00148749,-0.00006711,0.00005150,-10139.08886719,0,2,0
1314271596.04960728,-0.00006717,0.00005149,-10139.91601562,0,2,0
1314271596.09776044,-0.00006711,0.00005149,-10140.74218750,0,2,0
1314271596.14845729,-0.00006717,0.00005149,-10141.56933594,0,2,0
1314271596.20160317,-0.00006711,0.00005149,-10142.39648438,0,2,0
1314271596.25019598,-0.00006717,0.00005149,-10143.22265625,0,2,0
1314271596.30049276,-0.00006711,0.00005149,-10144.04980469,0,2,0
1314271596.34847999,-0.00006717,0.00005149,-10144.87695312,0,2,0
1314271596.40057588,-0.00006711,0.00005149,-10145.70410156,0,2,0
1314271596.44845057,-0.00006717,0.00005148,-10146.53027344,0,2,0
1314271596.49765897,-0.00006711,0.00005149,-10147.35742188,0,2,0
1314271596.54898643,-0.00006717,0.00005148,-10148.18457031,0,2,0
1314271596.60164046,-0.00006711,0.00005148,-10149.01171875,0,2,0
1314271596.64860940,-0.00006716,0.00005148,-10149.83886719,0,2,0
1314271596.70159316,-0.00006711,0.00005148,-10150.66601562,0,2,0
1314271596.74848580,-0.00006716,0.00005148,-10151.49218750,0,2,0
1314271596.80047202,-0.00006711,0.00005148,-10152.32031250,0,2,0
1314271596.84850860,-0.00006716,0.00005148,-10153.14648438,0,2,0
1314271596.89760542,-0.00006711,0.00005148,-10153.97460938,0,2,0
1314271596.94960523,-0.00006716,0.00005148,-10154.80175781,0,2,0
1314271597.00158620,-0.00006711,0.00005148,-10155.62890625,0,2,0
1314271597.05272889,-0.00006716,0.00005147,-10156.45605469,0,2,0
1314271597.10051203,-0.00006711,0.00005147,-10157.28320312,0,2,0
1314271597.14945936,-0.00006716,0.00005147,-10158.11035156,0,2,0
1314271597.20044351,-0.00006711,0.00005147,-10158.93750000,0,2,0
1314271597.24848723,-0.00006716,0.00005147,-10159.76464844,0,2,0
1314271597.30056357,-0.00006711,0.00005147,-10160.59277344,0,2,0
1314271597.34845734,-0.00006716,0.00005147,-10161.41992188,0,2,0
1314271597.40046501,-0.00006711,0.00005147,-10162.24707031,0,2,0
1314271597.44855928,-0.00006716,0.00005147,-10163.07421875,0,2,0
1314271597.49824739,-0.00006711,0.00005147,-10163.90234375,0,2,0
1314271597.54847813,-0.00006716,0.00005146,-10164.72949219,0,2,0
1314271597.59823751,-0.00006711,0.00005146,-10165.55761719,0,2,0
1314271597.64885283,-0.00006716,0.00005146,-10166.38476562,0,2,0
1314271597.69743991,-0.00006710,0.00005146,-10167.21289062,0,2,0
1314271597.74919534,-0.00006716,0.00005146,-10168.04003906,0,2,0
1314271597.80050588,-0.00006710,0.00005146,-10168.86816406,0,2,0
1314271597.84983301,-0.00006716,0.00005146,-10169.69531250,0,2,0
1314271597.89759946,-0.00006710,0.00005146,-10170.52343750,0,2,0
1314271597.94848609,-0.00006715,0.00005146,-10171.35058594,0,2,0
1314271597.99711204,-0.00006710,0.00005145,-10172.17871094,0,2,0
1314271598.04849482,-0.00006715,0.00005146,-10173.00683594,0,2,0
1314271598.09808254,-0.00006710,0.00005145,-10173.83496094,0,2,0
1314271598.15041423,-0.00006715,0.00005145,-10174.66210938,0,2,0
1314271598.20049071,-0.00006710,0.00005145,-10175.49023438,0,2,0
1314271598.24755764,-0.00006715,0.00005145,-10176.31835938,0,2,0
1314271598.28960395,-0.00006710,0.00005145,-10177.14648438,0,2,0
1314271598.34846091,-0.00006710,0.00005145,-10177.80859375,0,2,0
1314271598.40047932,-0.00006710,0.00005145,-10178.80175781,0,2,0
1314271598.44953370,-0.00006715,0.00005145,-10179.62988281,0,2,0
1314271598.48998332,-0.00006710,0.00005144,-10180.45800781,0,2,0
1314271598.54851103,-0.00006710,0.00005144,-10181.12109375,0,2,0
1314271598.60047007,-0.00006710,0.00005144,-10182.11425781,0,2,0
1314271598.64838099,-0.00006715,0.00005144,-10182.94238281,0,2,0
1314271598.70058155,-0.00006710,0.00005144,-10183.77050781,0,2,0
1314271598.74855518,-0.00006715,0.00005144,-10184.59863281,0,2,0
1314271598.78847122,-0.00006710,0.00005144,-10185.42773438,0,2,0
1314271598.84850574,-0.00006710,0.00005144,-10186.08984375,0,2,0
1314271598.90043736,-0.00006710,0.00005144,-10187.08398438,0,2,0
1314271598.94849849,-0.00006715,0.00005144,-10187.91210938,0,2,0
1314271599.00059485,-0.00006710,0.00005143,-10188.74023438,0,2,0
1314271599.04848766,-0.00006715,0.00005144,-10189.56835938,0,2,0
1314271599.10047245,-0.00006710,0.00005143,-10190.39648438,0,2,0
1314271599.14953399,-0.00006715,0.00005143,-10191.22460938,0,2,0
1314271599.20046282,-0.00006710,0.00005143,-10192.05371094,0,2,0
1314271599.24959898,-0.00006715,0.00005143,-10192.88183594,0,2,0
1314271599.29764843,-0.00006710,0.00005143,-10193.71093750,0,2,0
1314271599.34947562,-0.00006715,0.00005143,-10194.53906250,0,2,0
1314271599.40058064,-0.00006710,0.00005143,-10195.36718750,0,2,0
1314271599.44847870,-0.00006715,0.00005143,-10196.19628906,0,2,0
1314271599.50059342,-0.00006709,0.00005142,-10197.02441406,0,2,0
1314271599.54848266,-0.00006715,0.00005143,-10197.85351562,0,2,0
1314271599.60044765,-0.00006709,0.00005142,-10198.68164062,0,2,0
1314271599.64860177,-0.00006715,0.00005143,-10199.51074219,0,2,0
1314271599.70063686,-0.00006709,0.00005142,-10200.33984375,0,2,0
1314271599.74847841,-0.00006714,0.00005142,-10201.16796875,0,2,0
1314271599.78959250,-0.00006709,0.00005142,-10201.99707031,0,2,0
1314271599.85077095,-0.00006709,0.00005142,-10202.66015625,0,2,0
1314271599.89752913,-0.00006709,0.00005142,-10203.65429688,0,2,0
1314271599.94949293,-0.00006714,0.00005142,-10204.48339844,0,2,0
1314271600.00147295,-0.00006709,0.00005141,-10205.31250000,0,2,0
1314271600.04954767,-0.00006714,0.00005142,-10206.14062500,0,2,0
1314271600.09837079,-0.00006709,0.00005141,-10206.96972656,0,2,0
1314271600.14949727,-0.00006714,0.00005142,-10207.79882812,0,2,0
1314271600.19748139,-0.00006709,0.00005141,-10208.62792969,0,2,0
1314271600.25018835,-0.00006714,0.00005141,-10209.45703125,0,2,0
1314271600.30139065,-0.00006709,0.00005141,-10210.28613281,0,2,0
1314271600.34948444,-0.00006714,0.00005141,-10211.11523438,0,2,0
1314271600.40046310,-0.00006709,0.00005141,-10211.94433594,0,2,0
1314271600.44960213,-0.00006714,0.00005141,-10212.77343750,0,2,0
1314271600.49823499,-0.00006709,0.00005140,-10213.60253906,0,2,0
1314271600.54848433,-0.00006714,0.00005141,-10214.43164062,0,2,0
1314271600.59737158,-0.00006709,0.00005140,-10215.26074219,0,2,0
1314271600.65271568,-0.00006714,0.00005141,-10216.08984375,0,2,0
1314271600.70115161,-0.00006709,0.00005140,-10216.91894531,0,2,0
1314271600.74847174,-0.00006714,0.00005140,-10217.74804688,0,2,0
1314271600.80047512,-0.00006709,0.00005140,-10218.57714844,0,2,0
1314271600.84895110,-0.00006714,0.00005140,-10219.40625000,0,2,0
1314271600.89762902,-0.00006709,0.00005139,-10220.23632812,0,2,0
1314271600.94847441,-0.00006714,0.00005140,-10221.06542969,0,2,0
1314271601.00148749,-0.00006709,0.00005139,-10221.89453125,0,2,0
1314271601.05011606,-0.00006714,0.00005140,-10222.72460938,0,2,0
1314271601.10160613,-0.00006709,0.00005139,-10223.55371094,0,2,0
1314271601.14952016,-0.00006714,0.00005140,-10224.38281250,0,2,0
1314271601.20152307,-0.00006709,0.00005139,-10225.21289062,0,2,0
1314271601.24963927,-0.00006714,0.00005139,-10226.04199219,0,2,0
1314271601.30043793,-0.00006708,0.00005139,-10226.87207031,0,2,0
1314271601.34959865,-0.00006713,0.00005139,-10227.70117188,0,2,0
1314271601.40160322,-0.00006708,0.00005138,-10228.53125000,0,2,0
1314271601.44847488,-0.00006713,0.00005139,-10229.36035156,0,2,0
1314271601.50046206,-0.00006708,0.00005138,-10230.19042969,0,2,0
1314271601.54948115,-0.00006713,0.00005139,-10231.02050781,0,2,0
1314271601.60146308,-0.00006708,0.00005138,-10231.84960938,0,2,0
1314271601.64946699,-0.00006713,0.00005139,-10232.67968750,0,2,0
1314271601.70182467,-0.00006708,0.00005138,-10233.50976562,0,2,0
1314271601.74851084,-0.00006713,0.00005138,-10234.33886719,0,2,0
1314271601.80230093,-0.00006708,0.00005138,-10235.16894531,0,2,0
1314271601.84845066,-0.00006713,0.00005138,-10235.99902344,0,2,0
1314271601.90163255,-0.00006708,0.00005137,-10236.82910156,0,2,0
1314271601.94946861,-0.00006713,0.00005138,-10237.65820312,0,2,0
1314271602.00048041,-0.00006708,0.00005137,-10238.48925781,0,2,0
1314271602.04849362,-0.00006713,0.00005138,-10239.31835938,0,2,0
1314271602.09768462,-0.00006708,0.00005137,-10240.14843750,0,2,0
1314271602.14857912,-0.00006713,0.00005138,-10240.97851562,0,2,0
1314271602.20159721,-0.00006708,0.00005137,-10241.80957031,0,2,0
1314271602.24849892,-0.00006713,0.00005137,-10242.63867188,0,2,0
1314271602.30160141,-0.00006708,0.00005137,-10243.46972656,0,2,0
1314271602.34848738,-0.00006713,0.00005137,-10244.29980469,0,2,0
1314271602.40044022,-0.00006708,0.00005136,-10245.12988281,0,2,0
1314271602.44865751,-0.00006713,0.00005137,-10245.95996094,0,2,0
1314271602.50045466,-0.00006708,0.00005136,-10246.79003906,0,2,0
1314271602.54962182,-0.00006713,0.00005137,-10247.62011719,0,2,0
1314271602.60146523,-0.00006708,0.00005136,-10248.45117188,0,2,0
1314271602.64847541,-0.00006713,0.00005137,-10249.28125000,0,2,0
1314271602.70157433,-0.00006708,0.00005136,-10250.11132812,0,2,0
1314271602.74947810,-0.00006713,0.00005137,-10250.94238281,0,2,0
1314271602.79753780,-0.00006708,0.00005136,-10251.77246094,0,2,0
1314271602.84961271,-0.00006713,0.00005136,-10252.60253906,0,2,0
1314271602.89845133,-0.00006708,0.00005135,-10253.43359375,0,2,0
1314271602.94949675,-0.00006713,0.00005136,-10254.26367188,0,2,0
1314271603.00050640,-0.00006708,0.00005135,-10255.09472656,0,2,0
1314271603.04849792,-0.00006713,0.00005136,-10255.92480469,0,2,0
1314271603.10159349,-0.00006708,0.00005135,-10256.75585938,0,2,0
1314271603.14946723,-0.00006713,0.00005136,-10257.58593750,0,2,0
1314271603.20149565,-0.00006708,0.00005135,-10258.41699219,0,2,0
1314271603.24845934,-0.00006712,0.00005136,-10259.24804688,0,2,0
1314271603.30044389,-0.00006708,0.00005135,-10260.07812500,0,2,0
1314271603.34848404,-0.00006712,0.00005135,-10260.90917969,0,2,0
1314271603.40044975,-0.00006708,0.00005134,-10261.74023438,0,2,0
1314271603.45081711,-0.00006712,0.00005135,-10262.57128906,0,2,0
1314271603.50164199,-0.00006708,0.00005134,-10263.40234375,0,2,0
1314271603.54946661,-0.00006712,0.00005135,-10264.23242188,0,2,0
1314271603.60048890,-0.00006708,0.00005134,-10265.06347656,0,2,0
1314271603.64960599,-0.00006712,0.00005135,-10265.89453125,0,2,0
1314271603.69749284,-0.00006708,0.00005134,-10266.72558594,0,2,0
1314271603.74960375,-0.00006712,0.00005135,-10267.55664062,0,2,0
1314271603.79759789,-0.00006708,0.00005134,-10268.38769531,0,2,0
1314271603.84848595,-0.00006712,0.00005135,-10269.21875000,0,2,0
1314271603.89718366,-0.00006708,0.00005133,-10270.04980469,0,2,0
1314271603.94850230,-0.00006712,0.00005134,-10270.88085938,0,2,0
1314271603.99751401,-0.00006708,0.00005133,-10271.71191406,0,2,0
1314271604.04855323,-0.00006712,0.00005134,-10272.54296875,0,2,0
1314271604.09813261,-0.00006708,0.00005133,-10273.37402344,0,2,0
1314271604.14851451,-0.00006712,0.00005134,-10274.20507812,0,2,0
1314271604.20160151,-0.00006708,0.00005133,-10275.03613281,0,2,0
1314271604.24846816,-0.00006712,0.00005134,-10275.86718750,0,2,0
1314271604.29758406,-0.00006708,0.00005133,-10276.69921875,0,2,0
1314271604.34949231,-0.00006712,0.00005134,-10277.53027344,0,2,0
1314271604.40047669,-0.00006708,0.00005132,-10278.36132812,0,2,0
1314271604.44963884,-0.00006712,0.00005134,-10279.19335938,0,2,0
1314271604.50048423,-0.00006708,0.00005132,-10280.02441406,0,2,0
1314271604.54953599,-0.00006712,0.00005133,-10280.85546875,0,2,0
1314271604.60165215,-0.00006708,0.00005132,-10281.68750000,0,2,0
1314271604.65108585,-0.00006712,0.00005133,-10282.51855469,0,2,0
1314271604.70062423,-0.00006708,0.00005132,-10283.35058594,0,2,0
1314271604.74947548,-0.00006712,0.00005133,-10284.18164062,0,2,0
1314271604.80151868,-0.00006708,0.00005132,-10285.01367188,0,2,0
1314271604.84849787,-0.00006712,0.00005133,-10285.84472656,0,2,0
1314271604.89783621,-0.00006708,0.00005131,-10286.67675781,0,2,0
1314271604.94960880,-0.00006712,0.00005133,-10287.50878906,0,2,0
1314271605.00063133,-0.00006708,0.00005131,-10288.33984375,0,2,0
1314271605.04975390,-0.00006712,0.00005132,-10289.17187500,0,2,0
1314271605.10057974,-0.00006708,0.00005131,-10290.00390625,0,2,0
1314271605.14846683,-0.00006712,0.00005132,-10290.83496094,0,2,0
1314271605.20148039,-0.00006708,0.00005131,-10291.66699219,0,2,0
1314271605.24850655,-0.00006712,0.00005132,-10292.49902344,0,2,0
1314271605.30047202,-0.00006708,0.00005131,-10293.33105469,0,2,0
1314271605.34846926,-0.00006712,0.00005132,-10294.16308594,0,2,0
1314271605.40043116,-0.00006708,0.00005130,-10294.99511719,0,2,0
1314271605.44845271,-0.00006712,0.00005132,-10295.82617188,0,2,0
1314271605.50159144,-0.00006708,0.00005130,-10296.65917969,0,2,0
1314271605.54949427,-0.00006712,0.00005132,-10297.49121094,0,2,0
1314271605.60152078,-0.00006708,0.00005130,-10298.32324219,0,2,0
1314271605.64912176,-0.00006712,0.00005131,-10299.15527344,0,2,0
1314271605.69757700,-0.00006708,0.00005130,-10299.98730469,0,2,0
1314271605.74904108,-0.00006712,0.00005131,-10300.81933594,0,2,0
1314271605.80159354,-0.00006708,0.00005130,-10301.65136719,0,2,0
1314271605.84984684,-0.00006712,0.00005131,-10302.48339844,0,2,0
1314271605.90050268,-0.00006708,0.00005129,-10303.31640625,0,2,0
1314271605.94952869,-0.00006712,0.00005131,-10304.14843750,0,2,0
1314271606.00058126,-0.00006708,0.00005129,-10304.98046875,0,2,0
1314271606.04946232,-0.00006712,0.00005131,-10305.81250000,0,2,0
1314271606.09789658,-0.00006708,0.00005129,-10306.64550781,0,2,0
1314271606.14948583,-0.00006712,0.00005131,-10307.47753906,0,2,0
1314271606.19749570,-0.00006708,0.00005129,-10308.31054688,0,2,0
1314271606.24857235,-0.00006712,0.00005130,-10309.14257812,0,2,0
1314271606.30044651,-0.00006708,0.00005129,-10309.97460938,0,2,0
1314271606.34847331,-0.00006713,0.00005130,-10310.80761719,0,2,0
1314271606.40048623,-0.00006708,0.00005128,-10311.64062500,0,2,0
1314271606.44849777,-0.00006713,0.00005130,-10312.47265625,0,2,0
1314271606.49834752,-0.00006708,0.00005128,-10313.30566406,0,2,0
1314271606.54909778,-0.00006713,0.00005130,-10314.13769531,0,2,0
1314271606.59745264,-0.00006708,0.00005128,-10314.97070312,0,2,0
1314271606.65053248,-0.00006713,0.00005130,-10315.80273438,0,2,0
1314271606.70149207,-0.00006708,0.00005128,-10316.63574219,0,2,0
1314271606.74845195,-0.00006713,0.00005130,-10317.46875000,0,2,0
1314271606.79814339,-0.00006708,0.00005128,-10318.30175781,0,2,0
1314271606.84946346,-0.00006713,0.00005129,-10319.13476562,0,2,0
1314271606.89813638,-0.00006708,0.00005127,-10319.96777344,0,2,0
1314271606.94945073,-0.00006713,0.00005129,-10320.79980469,0,2,0
1314271606.99816680,-0.00006708,0.00005127,-10321.63281250,0,2,0
1314271607.04854155,-0.00006713,0.00005129,-10322.46582031,0,2,0
1314271607.09743071,-0.00006709,0.00005127,-10323.29882812,0,2,0
1314271607.15004230,-0.00006713,0.00005129,-10324.13183594,0,2,0
1314271607.20043731,-0.00006709,0.00005127,-10324.96484375,0,2,0
1314271607.24947572,-0.00006713,0.00005129,-10325.79785156,0,2,0
1314271607.30045056,-0.00006709,0.00005126,-10326.63085938,0,2,0
1314271607.34945393,-0.00006713,0.00005128,-10327.46386719,0,2,0
1314271607.40045571,-0.00006709,0.00005126,-10328.29785156,0,2,0
1314271607.44741368,-0.00006713,0.00005128,-10329.13085938,0,2,0
1314271607.49732399,-0.00006709,0.00005126,-10329.96386719,0,2,0
1314271607.54845953,-0.00006713,0.00005128,-10330.79687500,0,2,0
1314271607.60148859,-0.00006709,0.00005126,-10331.62988281,0,2,0
1314271607.64850330,-0.00006713,0.00005128,-10332.46289062,0,2,0
1314271607.69788551,-0.00006709,0.00005126,-10333.29687500,0,2,0
1314271607.74961233,-0.00006713,0.00005128,-10334.12988281,0,2,0
1314271607.80159807,-0.00006709,0.00005125,-10334.96386719,0,2,0
1314271607.84845185,-0.00006713,0.00005128,-10335.79687500,0,2,0
1314271607.90158987,-0.00006709,0.00005125,-10336.62988281,0,2,0
1314271607.94946241,-0.00006713,0.00005127,-10337.46386719,0,2,0
1314271608.00079083,-0.00006709,0.00005125,-10338.29687500,0,2,0
1314271608.04972363,-0.00006713,0.00005127,-10339.13085938,0,2,0
1314271608.09773278,-0.00006709,0.00005125,-10339.96386719,0,2,0
1314271608.14851022,-0.00006714,0.00005127,-10340.79785156,0,2,0
1314271608.20044756,-0.00006709,0.00005125,-10341.63085938,0,2,0
1314271608.24851680,-0.00006714,0.00005127,-10342.46484375,0,2,0
1314271608.30150270,-0.00006709,0.00005124,-10343.29785156,0,2,0
1314271608.34947610,-0.00006714,0.00005127,-10344.13183594,0,2,0
1314271608.40048051,-0.00006709,0.00005124,-10344.96582031,0,2,0
1314271608.44963145,-0.00006714,0.00005126,-10345.79882812,0,2,0
1314271608.49759436,-0.00006709,0.00005124,-10346.63281250,0,2,0
1314271608.54851055,-0.00006714,0.00005126,-10347.46582031,0,2,0
1314271608.60154915,-0.00006710,0.00005124,-10348.29980469,0,2,0
1314271608.65253353,-0.00006714,0.00005126,-10349.13378906,0,2,0
1314271608.70047855,-0.00006710,0.00005124,-10349.96679688,0,2,0
1314271608.74946809,-0.00006714,0.00005126,-10350.80078125,0,2,0
1314271608.80146313,-0.00006710,0.00005123,-10351.63476562,0,2,0
1314271608.84850907,-0.00006714,0.00005126,-10352.46777344,0,2,0
1314271608.89746952,-0.00006710,0.00005123,-10353.30175781,0,2,0
1314271608.94849849,-0.00006714,0.00005126,-10354.13574219,0,2,0
1314271609.00158477,-0.00006710,0.00005123,-10354.96972656,0,2,0
1314271609.04848099,-0.00006714,0.00005125,-10355.80371094,0,2,0
1314271609.10047793,-0.00006710,0.00005123,-10356.63769531,0,2,0
1314271609.14846921,-0.00006714,0.00005125,-10357.47167969,0,2,0
1314271609.20057988,-0.00006710,0.00005123,-10358.30566406,0,2,0
1314271609.24952579,-0.00006714,0.00005125,-10359.13964844,0,2,0
1314271609.30045509,-0.00006710,0.00005122,-10359.97363281,0,2,0
1314271609.34960365,-0.00006714,0.00005125,-10360.80761719,0,2,0
1314271609.40165710,-0.00006710,0.00005122,-10361.64160156,0,2,0
1314271609.45137119,-0.00006714,0.00005125,-10362.47558594,0,2,0
1314271609.50047803,-0.00006710,0.00005122,-10363.30957031,0,2,0
1314271609.54846191,-0.00006714,0.00005124,-10364.14355469,0,2,0
1314271609.60045815,-0.00006710,0.00005122,-10364.97851562,0,2,0
1314271609.64849997,-0.00006714,0.00005124,-10365.81250000,0,2,0
1314271609.69816661,-0.00006710,0.00005122,-10366.64648438,0,2,0
1314271609.74949408,-0.00006714,0.00005124,-10367.48046875,0,2,0
1314271609.80051732,-0.00006710,0.00005121,-10368.31542969,0,2,0
1314271609.84862018,-0.00006714,0.00005124,-10369.14941406,0,2,0
1314271609.90159512,-0.00006710,0.00005121,-10369.98339844,0,2,0
1314271609.94847584,-0.00006714,0.00005123,-10370.81835938,0,2,0
1314271610.00052714,-0.00006710,0.00005121,-10371.65234375,0,2,0
1314271610.04955482,-0.00006714,0.00005123,-10372.48632812,0,2,0
1314271610.09761763,-0.00006710,0.00005121,-10373.32128906,0,2,0
1314271610.14846206,-0.00006714,0.00005123,-10374.15527344,0,2,0
1314271610.20044756,-0.00006710,0.00005121,-10374.99023438,0,2,0
1314271610.24860239,-0.00006714,0.00005123,-10375.82519531,0,2,0
1314271610.30145884,-0.00006710,0.00005120,-10376.65917969,0,2,0
1314271610.34958935,-0.00006714,0.00005123,-10377.49414062,0,2,0
1314271610.40047717,-0.00006710,0.00005120,-10378.32812500,0,2,0
1314271610.44859433,-0.00006714,0.00005122,-10379.16308594,0,2,0
1314271610.49771595,-0.00006710,0.00005120,-10379.99804688,0,2,0
1314271610.54845548,-0.00006714,0.00005122,-10380.83203125,0,2,0
1314271610.60058212,-0.00006710,0.00005120,-10381.66699219,0,2,0
1314271610.64846301,-0.00006714,0.00005122,-10382.50195312,0,2,0
1314271610.70046544,-0.00006710,0.00005120,-10383.33593750,0,2,0
1314271610.74963331,-0.00006714,0.00005122,-10384.17089844,0,2,0
1314271610.79791403,-0.00006710,0.00005119,-10385.00585938,0,2,0
1314271610.84960175,-0.00006714,0.00005122,-10385.84082031,0,2,0
1314271610.89775729,-0.00006710,0.00005119,-10386.67578125,0,2,0
1314271610.94960213,-0.00006715,0.00005121,-10387.50976562,0,2,0
1314271611.00059605,-0.00006710,0.00005119,-10388.34472656,0,2,0
1314271611.04847693,-0.00006715,0.00005121,-10389.17968750,0,2,0
1314271611.10046005,-0.00006710,0.00005119,-10390.01464844,0,2,0
1314271611.14848280,-0.00006715,0.00005121,-10390.84960938,0,2,0
1314271611.19770312,-0.00006710,0.00005118,-10391.68457031,0,2,0
1314271611.24857950,-0.00006715,0.00005121,-10392.51953125,0,2,0
1314271611.30043817,-0.00006710,0.00005118,-10393.35449219,0,2,0
1314271611.34962893,-0.00006715,0.00005120,-10394.18945312,0,2,0
1314271611.40158701,-0.00006710,0.00005118,-10395.02441406,0,2,0
1314271611.44845605,-0.00006715,0.00005120,-10395.85937500,0,2,0
1314271611.50047445,-0.00006710,0.00005118,-10396.69531250,0,2,0
1314271611.54846931,-0.00006715,0.00005120,-10397.53027344,0,2,0
1314271611.60046983,-0.00006710,0.00005118,-10398.36523438,0,2,0
1314271611.64846492,-0.00006715,0.00005120,-10399.20019531,0,2,0
1314271611.69760084,-0.00006710,0.00005117,-10400.03515625,0,2,0
1314271611.74945951,-0.00006715,0.00005120,-10400.87011719,0,2,0
1314271611.80047488,-0.00006710,0.00005117,-10401.70605469,0,2,0
1314271611.84850121,-0.00006715,0.00005119,-10402.54101562,0,2,0
1314271611.89745378,-0.00006710,0.00005117,-10403.37597656,0,2,0
1314271611.94949794,-0.00006715,0.00005119,-10404.21093750,0,2,0
1314271612.00043678,-0.00006710,0.00005117,-10405.04687500,0,2,0
1314271612.04893136,-0.00006715,0.00005119,-10405.88183594,0,2,0
1314271612.10044241,-0.00006710,0.00005117,-10406.71777344,0,2,0
1314271612.14845109,-0.00006715,0.00005119,-10407.55273438,0,2,0
1314271612.20044208,-0.00006710,0.00005116,-10408.38769531,0,2,0
1314271612.25253940,-0.00006715,0.00005118,-10409.22363281,0,2,0
1314271612.29759049,-0.00006710,0.00005116,-10410.05859375,0,2,0
1314271612.34946251,-0.00006714,0.00005118,-10410.89355469,0,2,0
1314271612.40044045,-0.00006710,0.00005116,-10411.72949219,0,2,0
1314271612.44951200,-0.00006714,0.00005118,-10412.56445312,0,2,0
1314271612.49748111,-0.00006710,0.00005116,-10413.40039062,0,2,0
1314271612.54952478,-0.00006714,0.00005118,-10414.23632812,0,2,0
1314271612.58960724,-0.00006710,0.00005116,-10415.07128906,0,2,0
1314271612.65249491,-0.00006710,0.00005115,-10415.74023438,0,2,0
1314271612.70049977,-0.00006710,0.00005115,-10416.74218750,0,2,0
1314271612.74946570,-0.00006714,0.00005117,-10417.57812500,0,2,0
1314271612.78852105,-0.00006710,0.00005115,-10418.41308594,0,2,0
1314271612.84960532,-0.00006710,0.00005115,-10419.08203125,0,2,0
1314271612.90047145,-0.00006710,0.00005115,-10420.08496094,0,2,0
